Back to catalog

STARLINK-5324

AliveCommunicationsVLEO
NORAD 55677·PAYLOAD·🇺🇸 United States

Launched Feb 17, 2023 from Vandenberg Space Force Base

Loading…

Next Passes (next 24 hours)

TLE

FreshSource: CelesTrak SupGP

Epoch: Sep 14, 2026, 14:27 UTC

1 55677C 23021BB  26257.60256944 -.00027270  00000+0 -22855-2 0  2576
2 55677  70.0033  28.0951 0003171 270.5796 175.5937 14.98342747    15

Track STARLINK-5324 in real time with AllMySat

Download on the App Store